Location: Boone Ranch
(37.2284°N, 96.5656°W)
Time: 07:38:07
(UTC+00:00)

Daily predictions for brighter satellites

Satellite Brightness Start Highest point End
(mag) Time Altitude Azimuth Time Altitude Azimuth Time Altitude Azimuth
Cosmos 841 Rocket 3.4 12:01:48 10° SSW 12:06:56 89° WNW 12:12:06 10° NNE
Cosmos 1898 Rocket 3.4 12:04:49 13° NNW 12:09:28 78° WSW 12:14:37 10° SSE
PSLV R/B 4.4 12:05:54 10° NNE 12:09:49 59° E 12:13:48 10° S
FALCON 9 R/B 3.1 12:08:09 16° WSW 12:10:23 20° SSW 12:12:48 10° SSE
Cosmos 2237 Rocket 2.1 12:05:09 10° SSW 12:10:48 84° WNW 12:16:31 10° NNE
Cosmos 2333 Rocket 3.3 12:13:28 22° NW 12:13:28 22° NW 12:17:27 10° N
H-2A R/B 4.3 12:08:54 10° NNE 12:13:03 37° E 12:17:13 10° SSE
Okean O Rocket 4.1 12:09:37 10° NE 12:13:09 24° E 12:16:39 10° SSE
deb Chang Zheng 4 3.9 12:09:33 10° N 12:13:31 39° WNW 12:17:26 10° SW
SJ-7 4.4 12:10:04 10° NNE 12:14:15 88° ESE 12:18:20 10° SSW
ATLAS CENTAUR R/B 3.4 12:11:18 10° S 12:14:30 27° ESE 12:17:40 10° NE
GPS 2-04 Rocket1 3.6 12:13:17 27° WSW 12:14:53 39° SSW 12:18:47 10° SE
CZ-2C R/B 4.2 12:10:23 10° SE 12:15:01 34° ENE 12:19:45 10° N
Cosmos 1570 Rocket 3.9 12:11:10 10° SSW 12:16:23 90° NW 12:21:38 10° NNE
Cosmos 2219 Rocket 3.2 12:17:16 23° WNW 12:17:25 23° WNW 12:21:48 10° N
Cosmos 2034 Rocket 4.0 12:11:44 10° SSW 12:18:05 74° W 12:24:28 10° N
YAOGAN 6 2.5 12:19:51 10° N 12:23:33 75° WNW 12:27:14 10° SSW
Cosmos 1953 2.4 12:19:44 10° SSW 12:23:37 51° W 12:27:30 10° N
FALCON 9 DEB 3.7 12:25:36 28° W 12:26:42 37° NW 12:29:54 10° NNE
Cosmos 1602 Rocket 4.2 12:24:43 10° N 12:29:08 60° E 12:33:31 10° SSE
USA 307 4.3 12:27:04 10° SSW 12:31:02 41° SE 12:35:00 10° ENE
PSLV R/B 4.1 12:27:48 10° S 12:31:45 50° W 12:35:47 10° NNW
Nadezhda 4 Rocket 3.9 12:25:58 10° NNW 12:32:04 71° W 12:38:08 10° S
COSMOS 2428 3.9 12:30:54 18° W 12:32:51 21° NW 12:37:08 10° N
Cosmos 1461 4.1 12:30:57 18° W 12:33:18 27° NW 12:37:21 10° N
GEOS 3 Rocket 3.8 12:29:41 10° SSE 12:34:55 58° WSW 12:40:15 10° NW
Cosmos 1634 Rocket 4.4 12:29:00 10° S 12:35:05 67° E 12:41:13 10° NNE
Cosmos 2208 Rocket 4.0 12:29:51 10° SSW 12:35:17 75° WNW 12:40:45 10° NNE
ERS-2 3.0 12:32:09 10° SSW 12:35:20 28° W 12:37:40 15° NW
Cosmos 1908 3.2 12:32:09 10° SSW 12:35:52 55° W 12:39:38 10° N
DMSP B5D1-3 4.4 12:32:05 10° S 12:37:12 78° WSW 12:42:19 10° NNW
CENTAUR R/B 3.9 12:34:06 10° S 12:39:14 39° ESE 12:45:10 10° NE
USA 308 3.9 12:35:37 10° SSW 12:39:40 49° SE 12:43:45 10° ENE
USA 305 3.7 12:36:31 10° SSW 12:40:39 54° SE 12:44:48 10° NE
Cosmos 1814 Rocket 4.0 12:37:48 10° SSW 12:42:51 56° WNW 12:47:54 10° N
Cosmos 1980 4.1 12:38:16 10° SW 12:43:34 41° WNW 12:48:55 10° N
Cosmos 1315 Rocket 4.5 12:40:02 10° SSE 12:43:39 37° E 12:47:16 10° NNE
COSMO-SKYMED 1 3.9 12:41:14 10° SW 12:44:25 20° W 12:47:20 11° NW
Cosmos 1937 Rocket 3.7 12:40:09 10° NNW 12:45:14 50° WSW 12:50:15 10° S
Envisat 3.3 12:44:35 10° N 12:49:25 45° WNW 12:54:14 10° SW
USA 238 DEB 4.1 12:43:13 10° SSW 12:49:38 68° ESE 12:56:21 10° NE
Cosmos 372 Rocket 4.1 12:44:22 10° NNW 12:49:39 88° E 12:54:52 10° SSE
USA 238 4.1 12:43:21 10° SSW 12:49:45 67° ESE 12:56:28 10° NE
NOAA 6 4.1 12:46:15 10° N 12:51:23 62° WNW 12:56:29 10° SSW
USA 306 3.2 12:48:11 10° SW 12:52:23 70° SE 12:56:38 10° NE
SWAS 4.4 12:48:13 10° SSW 12:52:26 65° WNW 12:56:41 10° NNE
CZ-4B DEB 4.4 12:55:24 10° N 13:00:49 53° WNW 13:06:11 10° SSW
CZ-2C R/B 1.8 13:00:37 10° WSW 13:04:35 53° S 13:08:17 10° E
IUS R/B (1) 4.2 13:05:15 10° SSW 13:06:34 14° SSE 13:08:13 10° SE
USA 276 4.5 13:06:42 10° WSW 13:07:23 11° SW 13:08:05 10° SW
Cosmos 2026 Rocket 4.1 13:03:00 10° N 13:09:20 79° W 13:15:43 10° S
